Tracking 27112 objects as of 27-Mar-2023
HD Live streaming from Space Station
objects crossing your sky now

SL-16 DEB

Track SL-16 DEB now!
10-day predictions


NORAD ID: 22381
Int'l Code: 1992-093BW
Perigee: 426.3 km
Apogee: 449.1 km
Inclination: 70.5 °
Period: 93.2 minutes
Semi major axis: 6808 km
RCS: 0.0237 m2 (small)
Launch date: December 25, 1992
Source: Commonwealth of Independent States (former USSR) (CIS)
Launch site: TYURATAM MISSILE AND SPACE COMPLEX (TTMTR)

Note: This is SATELLITE DEBRIS
Your satellite tracking list
Your tracking list is empty




NASA's NSSDC Master Catalog

Two Line Element Set (TLE):
1 22381U 92093BW  23083.29967709  .02148289  00000-0  39686-1 0  9991
2 22381  70.5222 152.8957 0016781 325.5513  34.4584 15.45281162582581
Source of the keplerian elements: AFSPC